Hourly Data Report for October 06, 2017

All times are specified in Local Standard Time (LST). Add 1 hour to adjust for Daylight Saving Time where and when it is observed.

CHURCHILL
MANITOBA

58°44'21.000" N
94°03'59.000" W
29.30 m
5060595
71618
YYQ

Related Data

No related data is available for this station

Download Data

Hourly Data (October 2017)
Hourly Data Report for October 6, 2017
Temp Definition
°C
Dew Point Temp Definition
°C
Rel Hum Definition
%
Wind Dir Definition
10's deg

Wind Spd Definition
km/h
Visibility Definition
km
Stn Press Definition
kPa
Hmdx Definition


Wind Chill Definition


Weather Definition


TIME
00:00 Legend Double Dagger -0.7 -5.0 73 32 26 16.1 99.99   -7 LegendNANA
01:00 Legend Double Dagger -0.9 -5.2 73 30 22 16.1 99.97   -7 LegendNANA
02:00 Legend Double Dagger -1.0 -4.8 76 32 18 16.1 99.93   -6 LegendNANA
03:00 Legend Double Dagger -1.0 -4.7 76 31 15 16.1 99.90   -6 LegendNANA
04:00 Legend Double Dagger -1.5 -4.5 80 29 11 16.1 99.88   -5 LegendNANA
05:00 Legend Double Dagger -2.6 -4.0 90 26 9 16.1 99.84   -6 LegendNANA
06:00 Legend Double Dagger -2.5 -3.8 91 24 8 16.1 99.80   -6 LegendNANA
07:00 Legend Double Dagger -2.0 -3.6 89 24 9 16.1 99.78   -5 LegendNANA
08:00 Legend Double Dagger -1.2 -4.2 80 29 9 16.1 99.77   -4 LegendNANA
09:00 Legend Double Dagger -0.7 -3.9 79 27 11 16.1 99.75   -4 LegendNANA
10:00 Legend Double Dagger -0.6 -3.8 79 26 9 16.1 99.68   -4 LegendNANA
11:00 Legend Double Dagger 0.1 -3.5 77 30 9 16.1 99.62     LegendNANA
12:00 Legend Double Dagger 0.9 -2.7 77 35 5 16.1 99.59     LegendNANA
13:00 Legend Double Dagger 0.9 -2.9 76 7 9 16.1 99.60     LegendNANA
14:00 Legend Double Dagger 0.2 -2.2 84 12 13 4.8 99.58     Snow
15:00 Legend Double Dagger -0.5 -0.8 98 14 11 14.5 99.57   -4 Freezing Rain,Snow
16:00 Legend Double Dagger -0.4 -0.8 97 12 15 4.8 99.53   -5 Snow
17:00 Legend Double Dagger -0.7 -0.8 99 10 18 11.3 99.50   -6 Freezing Rain
18:00 Legend Double Dagger -0.5 -0.8 98 11 18 16.1 99.47   -6 Snow
19:00 Legend Double Dagger -0.3 -0.6 98 11 21 16.1 99.46   -6 Snow
20:00 Legend Double Dagger -0.1 -0.2 99 11 21 16.1 99.40   -6 Snow
21:00 Legend Double Dagger 0.2 0.1 99 12 24 16.1 99.37     Rain
22:00 Legend Double Dagger 0.2 0.1 99 12 22 16.1 99.29     Rain
23:00 Legend Double Dagger 0.3 0.2 99 11 24 16.1 99.23     Rain

Notes on Data Quality.

Legend

  • E = Estimated
  • M = Missing
  • NA = Not Available
  • ‡ = Partner data that is not subject to review by the National Climate Archives
Date modified: